Wetbulb
43.77 43.49 43.63 43.72 44.10 43.93 44.07 43.88 44.10 43.39 43.14 42.22 42.48 42.94 43.27 43.34 43.83 38.98 36.30 38.33 36.03 30.59 29.75 31.96 32.71 29.52 29.38 29.41 25.08 28.83 27.68 28.52 27.32 23.71 23.66 23.23 23.05 23.99 23.34 26.22 25.24 25.50 24.18 24.78 24.92 21.70 18.49 36.60 36.15 29.98 35.67 38.33 37.56 39.93
43.71 43.65 43.51 43.36 43.28 42.99 43.40 43.78 43.57 43.09 42.84 42.56 42.67 43.14 43.10 43.24 43.88 41.12 36.66 38.79 39.76 34.28 30.84 34.52 35.48 35.95 34.46 34.18 31.48 31.78 29.17 29.04 30.66 26.68 25.75 26.14 23.31 26.06 24.62 20.38 32.25 23.93 28.01 25.85 28.05 26.25 34.17 37.22 36.68 40.49 41.59 38.35 38.54 40.35
42.98 43.19 43.40 43.04 42.98 42.87 42.81 42.23 41.97 42.54 42.40 42.51 42.70 42.93 42.95 43.12 44.00 41.78 38.96 39.12 38.05 33.54 32.51 32.35 31.39 36.10 37.68 37.52 38.53 28.47 30.18 33.05 33.21 35.46 32.37 29.27 23.84 27.31 22.26 24.36 27.43 30.90 33.99 30.38 30.23 34.11 35.92 36.51 39.42 40.77 41.03 39.53 40.26 38.21
42.43 42.80 43.01 42.89 43.05 42.83 42.81 42.79 42.30 42.19 42.25 42.22 42.78 42.84 42.85 43.17 43.56 42.66 38.46 39.69 38.23 34.22 26.76 27.80 34.62 32.54 36.69 36.76 36.34 36.34 34.23 35.02 34.84 34.88 30.58 28.36 25.50 30.84 26.64 28.14 27.48 31.78 33.47 31.05 31.04 33.70 34.27 37.17 36.63 37.98 37.33 37.74 35.72 34.88
41.98 42.50 42.59 42.88 42.75 42.38 42.37 42.08 41.85 41.89 42.10 42.07 42.46 42.58 42.71 42.88 43.29 41.89 40.39 40.29 39.84 33.61 26.05 27.66 32.68 35.45 36.43 35.75 34.91 35.45 34.53 32.97 31.83 30.07 28.59 26.44 31.22 30.65 31.02 30.93 29.49 32.93 30.72 28.23 27.90 31.67 32.28 32.65 32.83 35.49 34.73 34.39 34.21 34.30
41.65 42.19 42.24 42.50 42.47 42.26 41.93 41.84 41.92 42.02 42.05 42.58 42.59 42.60 42.55 42.74 42.28 37.69 32.62 38.79 40.18 39.58 30.69 24.66 31.90 32.03 34.31 34.47 33.83 33.65 33.90 32.79 32.78 30.89 29.94 32.05 34.05 31.51 26.87 26.35 31.90 32.73 33.02 32.56 30.46 33.30 34.53 35.04 37.06 36.17 33.87 32.88 32.20 31.63
41.56 41.50 41.72 41.92 41.81 41.93 41.74 41.53 42.03 41.92 42.01 42.03 42.03 41.70 41.92 42.42 39.13 33.68 32.18 36.80 40.59 40.09 31.91 25.28 24.85 31.47 34.99 34.49 32.87 32.50 34.11 33.39 33.15 32.04 31.10 31.30 31.63 33.25 28.93 24.71 30.85 30.42 30.95 31.39 31.01 32.85 31.10 32.48 32.78 35.25 33.60 32.25 31.60 30.41
41.19 41.06 41.43 41.59 41.57 41.35 41.31 41.31 41.46 41.26 41.87 41.78 41.99 42.10 42.26 42.10 40.61 36.44 38.98 41.77 41.35 36.42 34.57 24.30 23.95 27.29 34.98 31.45 31.27 34.67 31.78 33.53 34.13 33.09 33.48 30.69 33.31 32.21 26.93 29.68 29.10 28.83 29.56 29.80 28.81 31.16 30.06 31.80 32.35 32.48 32.72 32.19 29.91 28.45
40.80 40.96 41.20 41.26 40.75 40.57 41.23 41.16 40.93 40.99 41.59 41.58 41.49 41.60 40.43 37.99 34.22 36.88 42.02 42.46 41.82 35.73 26.23 26.38 22.51 20.93 34.09 34.74 35.81 35.87 35.44 29.67 35.33 30.04 31.57 33.48 30.17 28.05 27.92 27.35 26.51 26.35 25.40 25.33 27.95 28.83 28.18 27.60 28.16 29.82 30.14 29.43 28.71 27.37
40.25 40.63 40.74 40.84 41.07 40.96 40.81 41.20 40.58 40.77 41.90 41.99 39.18 32.82 30.24 34.24 41.44 41.98 38.36 33.33 31.52 32.97 33.68 25.78 28.58 24.29 32.02 32.49 32.97 32.61 33.17 31.30 27.34 31.58 34.71 30.72 27.39 28.62 28.94 27.93 26.92 25.37 25.13 25.00 23.09 22.78 24.23 24.29 24.82 25.82 27.49 28.18 27.78 27.20
39.95 40.06 40.42 40.58 40.86 40.87 41.02 41.00 41.19 41.42 41.37 36.25 31.49 32.04 35.29 42.14 37.51 34.42 29.26 28.48 28.59 26.09 28.63 28.57 28.32 26.38 32.53 28.56 29.11 32.40 30.44 30.48 25.99 29.22 30.44 28.74 25.05 25.62 27.83 27.44 26.63 25.68 24.32 23.49 23.25 23.41 23.76 24.42 23.34 23.69 25.20 25.79 25.46 24.86
39.88 39.93 39.92 40.17 40.51 40.62 40.84 41.09 41.04 38.39 36.87 36.16 37.53 40.18 39.30 34.52 31.31 27.38 23.33 26.26 24.85 23.38 27.94 27.24 28.62 30.92 31.76 33.93 31.09 31.71 29.23 27.79 23.59 31.23 28.89 25.33 22.80 25.03 25.53 24.97 24.99 24.35 22.49 21.46 21.46 21.01 21.39 22.89 22.24 22.12 22.81 22.95 23.37 23.15
39.48 39.71 39.77 39.90 40.69 40.41 40.58 41.10 41.25 40.48 39.82 39.66 36.74 31.72 31.13 29.97 23.48 20.41 18.58 20.92 22.41 26.74 27.89 29.77 28.38 30.45 30.58 33.69 30.53 29.46 26.21 24.56 28.92 24.98 24.54 21.85 23.78 24.16 24.25 24.18 23.80 23.49 21.43 20.06 19.38 19.70 19.55 19.67 19.70 18.85 18.75 19.83 21.17 20.39
39.42 39.60 39.84 40.22 40.75 41.04 41.20 41.37 41.79 40.12 37.03 30.75 29.78 25.38 25.33 21.41 24.21 23.74 25.36 26.69 28.29 27.82 28.66 29.60 29.75 29.70 31.38 29.79 29.72 25.18 27.14 27.43 23.68 21.59 20.45 21.55 22.40 23.16 23.81 24.08 22.55 20.92 18.80 15.76 15.90 16.49 15.47 15.38 15.29 14.68 13.87 15.83 17.13 16.99
39.16 39.54 39.90 40.15 40.57 41.02 41.48 41.72 41.47 40.03 33.29 29.82 30.69 22.50 23.61 24.61 27.24 27.03 28.55 29.01 28.80 29.08 30.96 30.38 30.51 31.21 27.97 26.64 27.80 24.76 23.32 21.33 21.24 18.79 18.63 22.81 22.74 22.37 22.58 22.49 21.44 19.97 16.83 15.45 13.40 11.07 9.84 10.06 11.34 10.99 11.30 13.25 15.30 14.77
39.64 39.78 38.46 40.55 41.07 41.38 41.74 41.18 39.07 33.95 31.10 26.44 22.12 23.33 25.65 27.94 27.66 29.13 29.37 28.46 31.13 30.92 30.29 30.28 26.19 25.72 24.69 25.58 24.70 23.03 21.34 18.29 16.02 18.84 21.35 22.24 21.37 19.83 20.45 20.26 19.54 17.42 15.04 13.18 12.01 11.11 10.89 8.96 9.20 10.21 9.92 10.53 11.16 12.59
40.28 36.44 39.88 41.12 41.26 41.38 41.61 34.45 33.14 29.31 25.71 20.95 18.39 22.38 24.32 23.75 23.37 23.10 24.49 25.27 27.20 30.74 30.53 26.13 21.13 22.68 25.73 23.16 19.60 16.75 16.02 15.39 19.07 20.55 21.56 20.72 20.66 20.21 19.54 17.63 16.32 15.94 15.73 13.51 11.89 12.18 10.80 10.16 9.65 11.15 9.80 10.77 11.86 12.57
36.48 38.33 42.18 41.23 40.80 38.27 32.93 32.93 29.81 25.99 19.44 20.51 17.41 18.60 18.06 17.29 20.35 19.66 20.96 22.71 24.82 29.20 29.05 24.33 25.13 22.15 17.74 21.26 13.98 12.93 15.90 18.19 19.37 19.06 19.27 18.51 19.56 17.92 18.24 18.54 16.84 15.21 15.36 12.75 12.06 11.79 11.46 10.57 11.34 11.42 10.39 11.32 11.67 11.78
40.54 40.93 41.71 41.31 38.04 33.26 29.21 29.11 28.88 19.91 19.61 20.43 21.40 20.91 18.64 17.66 18.38 18.25 19.74 22.55 22.83 23.19 22.48 19.76 15.58 11.11 9.21 11.17 11.65 13.27 15.36 17.06 17.49 18.37 18.47 16.01 14.57 17.26 18.14 15.76 15.77 14.12 13.74 13.91 14.62 14.73 13.46 11.87 12.37 12.84 13.13 12.79 11.38 11.88
41.34 40.99 39.83 39.20 37.71 30.34 26.33 25.52 28.57 22.31 17.98 19.46 20.45 17.28 16.57 15.94 17.54 15.71 16.84 18.47 18.90 17.26 12.79 11.30 9.79 10.19 11.25 13.92 16.29 17.14 17.54 18.28 18.74 17.72 17.08 16.86 17.82 17.85 16.80 16.70 17.18 15.62 15.81 15.09 14.59 13.34 13.84 13.22 13.18 13.38 12.94 11.96 11.42 10.67
37.75 37.92 37.93 35.63 31.62 29.35 25.66 23.78 21.78 22.20 20.98 17.22 19.05 17.71 14.32 16.57 14.37 14.51 14.52 16.26 12.25 9.74 10.28 11.50 12.24 13.81 14.45 16.07 17.16 19.29 18.52 19.14 16.90 17.08 15.54 14.73 16.42 17.69 17.01 16.65 16.79 16.32 15.49 14.51 13.89 12.24 11.83 11.79 12.11 12.13 11.46 11.37 11.79 12.33
36.69 37.43 32.62 33.22 27.72 26.75 24.05 24.81 22.02 22.44 20.40 19.67 17.48 16.50 11.37 10.41 9.94 10.49 15.20 10.40 9.16 10.13 11.35 12.94 13.74 14.06 14.79 13.54 14.23 15.09 16.65 16.54 15.87 15.35 13.33 14.80 13.85 13.85 13.73 13.42 15.03 12.64 12.56 12.84 12.88 11.52 11.68 12.43 12.68 12.16 11.63 11.66 12.22 12.41
34.84 33.42 29.84 29.09 23.47 20.38 19.90 27.26 20.31 21.02 13.81 15.74 16.25 11.31 8.22 8.54 11.38 15.24 6.55 9.23 9.89 12.39 13.63 14.43 13.84 14.84 14.39 14.86 15.82 14.83 14.71 15.65 13.96 14.02 14.56 14.41 14.30 14.23 14.14 13.70 13.83 12.37 11.45 12.08 13.39 12.16 11.47 10.07 11.17 11.87 12.09 12.00 11.95 11.69
29.58 23.45 19.31 17.23 19.09 14.48 23.57 18.89 23.35 20.21 17.73 13.22 11.25 6.35 7.34 8.38 12.30 6.16 2.87 5.41 9.91 13.57 13.68 14.03 15.56 14.02 14.71 14.12 12.72 12.89 13.98 15.96 14.53 14.01 14.15 15.43 14.49 14.56 15.00 14.33 14.26 14.21 14.11 13.50 12.71 11.98 11.83 11.44 10.85 11.47 11.05 10.66 10.54 10.37
20.68 15.42 17.79 9.26 13.65 10.33 6.86 5.47 9.49 12.50 5.82 8.15 7.57 6.47 8.76 11.27 3.40 1.58 0.35 7.43 9.78 10.31 12.27 13.46 13.21 13.44 12.24 12.46 12.52 12.92 14.39 14.75 13.37 11.55 12.67 13.94 14.56 15.02 14.73 15.29 15.19 15.44 15.40 12.53 10.76 10.56 10.24 10.80 11.19 10.90 10.78 10.49 9.66 9.62
9.34 8.23 6.42 5.44 8.18 8.98 9.61 4.15 3.64 5.44 9.17 6.30 8.49 11.39 10.09 6.18 3.04 1.93 6.53 9.03 10.15 11.50 10.61 10.68 9.93 9.65 9.51 10.78 10.19 10.34 11.64 14.72 14.12 11.34 11.78 13.19 13.23 13.25 12.53 11.79 12.06 13.22 15.98 14.87 12.29 11.21 10.83 10.64 10.77 10.03 10.22 10.00 9.39 9.51
5.24 4.97 12.46 14.85 14.84 13.22 7.53 8.96 11.99 9.26 6.47 6.43 8.87 6.20 5.78 0.06 -0.45 5.63 11.03 11.59 10.91 10.86 11.71 11.72 11.64 10.44 9.50 9.70 10.83 11.66 13.03 13.82 13.11 12.27 13.36 12.92 12.57 12.49 11.95 10.42 9.84 12.75 15.43 15.26 15.03 13.75 12.52 11.18 9.94 9.37 8.90 9.36 9.70 9.41
10.66 11.09 7.26 5.74 6.24 8.14 3.30 3.78 4.16 3.68 6.43 8.47 4.96 -3.02 -3.17 -2.31 1.24 7.01 8.44 10.67 9.70 9.37 8.00 7.29 7.20 7.59 7.31 6.57 6.77 7.55 8.95 8.86 12.53 12.81 12.92 12.15 11.29 10.42 10.14 11.55 12.11 14.04 14.01 14.75 13.67 13.86 13.80 12.64 11.02 9.71 9.25 8.90 8.35 9.34
3.05 6.72 7.11 -1.13 1.65 1.79 1.15 -0.06 1.67 5.79 6.85 4.00 -1.29 -1.84 0.29 2.89 2.11 3.77 6.02 8.15 9.17 7.40 3.63 3.33 1.47 0.66 1.97 3.07 2.12 2.07 1.28 2.32 7.05 1.77 1.59 2.90 3.55 6.37 6.64 7.95 9.68 10.69 11.89 13.30 15.45 14.22 12.99 12.16 11.62 11.39 10.46 10.31 9.30 9.78
2.26 5.37 -0.61 -4.74 -5.38 -3.24 -1.54 0.14 0.89 -0.13 2.58 3.14 5.56 5.08 3.14 2.21 3.68 4.35 5.13 6.06 5.22 0.52 -3.97 -5.60 -7.06 -1.47 -1.32 -0.07 -1.62 -1.40 -2.51 -4.16 -3.07 2.68 2.49 1.97 2.90 2.40 2.41 2.66 4.26 6.55 8.19 10.91 11.36 11.13 12.40 11.28 11.41 9.63 8.75 8.09 7.89 6.92
2.55 -0.23 -3.31 -3.25 -3.97 -0.28 -2.64 -8.71 -8.70 -6.14 -7.53 -6.10 -5.92 -5.70 -2.98 -0.26 3.17 0.05 -2.75 -6.91 -8.32 -8.55 -3.79 -4.07 -4.87 -9.07 -4.08 -4.10 -2.25 -2.10 -1.57 -2.41 -7.28 -4.83 -2.74 -1.81 -1.98 -2.40 -3.61 -3.24 -1.99 -0.40 5.31 6.70 7.31 7.62 6.89 6.57 6.61 6.60 6.03 4.83 3.92 4.19
-7.12 -10.69 -5.47 -5.98 -2.53 -2.70 -3.37 -10.14 -11.40 -8.35 -11.58 -5.62 -9.04 -13.21 -9.81 -6.98 -8.32 -2.86 -4.00 -5.88 -4.62 -3.40 -10.68 -9.38 -4.13 -3.44 -8.24 -9.23 -12.49 -10.70 -12.50 -6.51 -5.42 -7.24 -6.98 -5.99 -4.49 -5.35 -5.78 -4.88 -4.78 -1.18 1.18 2.09 4.01 3.23 2.09 2.24 1.78 1.44 1.23 0.11 -0.85 -1.40
-9.34 -10.51 -8.14 -4.69 -5.42 -5.96 -5.42 -3.44 -4.92 -6.69 -8.86 -9.77 -10.31 -13.21 -13.40 -6.95 -6.74 -2.86 -4.65 -8.33 -3.90 -2.80 -4.38 -5.46 -5.59 -7.77 -8.66 -9.05 -6.14 -6.69 -10.72 -7.95 -11.94 -6.32 -3.42 -5.42 -11.04 -7.59 -6.34 -4.87 -3.45 -2.60 -1.23 -1.15 -0.93 1.14 0.81 -1.41 -2.89 -3.97 -4.51 -4.87 -5.60 -5.78
MSLP
1012.20 1012.90 1013.47 1013.86 1014.55 1015.27 1015.64 1016.14 1016.81 1017.44 1018.06 1018.62 1019.01 1019.46 1019.84 1020.01 1020.26 1021.14 1021.81 1021.91 1022.26 1022.69 1022.33 1021.89 1021.68 1021.55 1021.45 1021.48 1021.33 1020.75 1020.15 1019.67 1019.21 1018.81 1018.37 1017.74 1016.80 1015.79 1015.18 1014.17 1013.42 1012.78 1012.26 1011.43 1011.17 1010.45 1009.62 1008.87 1007.78 1007.77 1007.85 1007.62 1007.74 1006.89
1011.54 1012.20 1012.85 1013.47 1014.05 1015.02 1015.43 1015.79 1016.44 1017.10 1017.69 1018.28 1018.73 1019.17 1019.54 1019.76 1019.96 1020.72 1021.49 1021.87 1022.09 1022.55 1022.06 1021.76 1021.34 1021.00 1020.90 1020.72 1020.87 1020.91 1020.76 1020.55 1019.89 1019.56 1018.97 1018.30 1017.44 1016.42 1015.47 1014.35 1013.63 1013.25 1013.08 1012.37 1011.63 1010.42 1009.68 1009.45 1009.00 1008.45 1008.01 1007.99 1007.65 1007.64
1010.91 1011.55 1012.21 1012.87 1013.71 1014.48 1015.24 1015.52 1016.49 1016.87 1017.36 1017.94 1018.45 1018.89 1019.26 1019.46 1019.75 1020.39 1021.03 1021.58 1022.12 1022.11 1021.68 1021.26 1020.10 1019.57 1019.84 1019.87 1020.19 1020.96 1020.36 1019.97 1019.63 1019.42 1018.96 1018.41 1017.78 1017.00 1015.82 1014.69 1014.01 1013.41 1012.72 1012.04 1011.52 1010.52 1010.16 1009.68 1009.14 1008.84 1008.42 1008.27 1008.43 1008.76
1010.40 1010.87 1011.56 1012.31 1013.25 1013.99 1014.66 1015.03 1015.80 1016.34 1017.12 1017.66 1018.11 1018.61 1019.06 1019.39 1019.72 1020.32 1020.85 1021.19 1021.63 1021.93 1021.70 1020.24 1019.57 1019.35 1018.53 1018.88 1019.40 1019.54 1019.61 1019.70 1019.77 1019.51 1019.29 1018.66 1017.84 1017.02 1016.00 1015.15 1014.40 1013.69 1013.03 1012.69 1011.48 1010.92 1010.53 1010.24 1010.22 1009.70 1009.58 1009.47 1009.69 1009.96
1009.86 1010.42 1011.04 1011.79 1012.68 1013.48 1014.20 1014.82 1015.32 1016.09 1016.75 1017.30 1017.84 1018.36 1018.84 1019.26 1019.63 1020.23 1020.74 1020.97 1021.22 1021.51 1021.35 1020.21 1019.29 1017.55 1017.63 1018.20 1018.62 1018.93 1019.30 1019.71 1019.81 1019.56 1019.10 1018.34 1017.43 1016.92 1015.87 1015.26 1014.39 1014.26 1014.08 1013.86 1013.14 1012.63 1012.04 1012.04 1011.14 1011.04 1010.42 1010.63 1010.93 1011.08
1009.23 1009.82 1010.53 1011.25 1012.11 1013.03 1013.76 1014.43 1015.11 1015.79 1016.36 1016.93 1017.52 1018.04 1018.60 1019.05 1019.55 1020.44 1020.83 1020.51 1020.75 1021.17 1021.51 1020.45 1018.62 1017.62 1017.32 1017.37 1017.84 1018.34 1018.75 1019.33 1019.37 1019.10 1018.46 1017.60 1016.91 1016.89 1016.11 1015.19 1014.85 1014.98 1015.17 1015.21 1014.84 1014.00 1013.29 1012.78 1012.61 1012.49 1012.16 1012.22 1012.18 1012.27
1008.54 1009.17 1009.99 1010.84 1011.74 1012.62 1013.36 1014.02 1014.68 1015.48 1016.11 1016.70 1017.39 1017.95 1018.47 1018.85 1019.60 1020.08 1020.03 1020.01 1020.14 1020.91 1021.23 1020.44 1019.02 1017.54 1017.09 1017.20 1017.72 1018.10 1018.33 1018.42 1018.54 1018.40 1017.61 1017.07 1016.63 1016.76 1016.25 1015.67 1015.33 1015.59 1015.58 1015.59 1015.51 1014.58 1014.02 1014.00 1013.98 1013.52 1013.17 1013.06 1013.03 1013.18
1007.92 1008.68 1009.50 1010.40 1011.37 1012.37 1013.12 1013.75 1014.45 1015.24 1015.89 1016.62 1017.24 1017.78 1018.27 1018.71 1019.36 1019.72 1019.35 1019.69 1020.10 1020.58 1020.91 1020.48 1019.24 1018.15 1016.91 1016.91 1017.09 1017.14 1017.49 1017.87 1017.61 1017.18 1016.86 1016.54 1016.38 1016.42 1016.05 1016.05 1016.32 1016.41 1016.11 1016.01 1016.11 1015.86 1015.90 1015.46 1014.94 1014.47 1014.13 1013.82 1013.75 1013.83
1007.39 1008.22 1009.11 1010.03 1011.06 1011.99 1012.74 1013.51 1014.34 1015.22 1015.77 1016.51 1017.09 1017.72 1018.37 1018.76 1018.95 1018.93 1018.89 1019.32 1020.01 1020.44 1020.10 1019.90 1019.35 1018.23 1016.87 1016.65 1016.55 1016.59 1016.58 1016.58 1016.35 1016.19 1015.86 1016.05 1015.76 1015.93 1016.45 1016.94 1017.25 1017.51 1017.60 1017.36 1016.85 1016.59 1016.41 1016.08 1015.83 1015.39 1015.08 1014.90 1014.72 1014.76
1007.04 1007.82 1008.68 1009.64 1010.55 1011.49 1012.39 1013.20 1014.24 1015.13 1015.52 1016.24 1017.26 1017.87 1018.00 1018.13 1018.10 1018.52 1019.18 1019.62 1019.84 1019.47 1019.18 1018.77 1018.41 1017.98 1017.22 1016.79 1016.37 1016.22 1015.91 1015.49 1015.43 1015.13 1015.29 1015.44 1015.92 1016.85 1017.43 1017.98 1018.32 1018.47 1018.45 1018.29 1017.75 1017.31 1017.21 1017.03 1016.85 1016.54 1016.14 1015.98 1015.86 1015.73
1006.72 1007.55 1008.42 1009.33 1010.20 1011.08 1011.98 1012.84 1013.80 1014.67 1015.42 1016.46 1016.76 1016.85 1017.19 1017.29 1017.86 1018.37 1018.40 1018.64 1018.90 1018.72 1018.01 1017.25 1017.08 1016.77 1016.64 1016.50 1016.14 1015.95 1015.49 1015.14 1014.85 1014.88 1014.92 1015.17 1016.31 1017.47 1018.28 1018.71 1019.05 1019.25 1019.32 1019.28 1019.24 1019.07 1018.81 1018.38 1018.10 1017.68 1017.21 1017.00 1016.88 1016.79
1006.69 1007.51 1008.31 1009.02 1009.88 1010.82 1011.75 1012.63 1013.49 1014.40 1015.03 1015.71 1015.56 1015.93 1016.52 1016.97 1017.36 1017.75 1017.92 1017.97 1017.84 1017.08 1016.47 1016.15 1016.06 1016.29 1016.12 1015.95 1015.86 1015.67 1015.28 1015.32 1014.93 1015.03 1015.24 1015.75 1017.57 1018.53 1018.98 1019.35 1019.65 1019.92 1020.05 1020.02 1020.09 1019.99 1019.81 1019.43 1019.35 1019.04 1018.63 1018.33 1018.10 1017.99
1006.61 1007.40 1008.15 1008.90 1009.78 1010.71 1011.76 1012.47 1013.22 1014.03 1014.95 1015.20 1015.07 1015.48 1015.70 1016.16 1016.46 1016.56 1016.55 1016.66 1016.40 1015.78 1015.51 1015.52 1015.78 1015.83 1016.10 1015.95 1015.86 1015.69 1015.50 1015.40 1015.44 1015.69 1015.98 1017.44 1018.50 1019.26 1019.74 1020.11 1020.35 1020.66 1020.96 1021.05 1021.11 1021.08 1020.97 1020.77 1020.63 1020.40 1020.03 1019.73 1019.33 1019.07
1006.45 1007.22 1008.01 1008.82 1009.65 1010.53 1011.31 1012.07 1012.88 1013.86 1014.66 1014.51 1014.18 1014.66 1015.01 1015.21 1014.70 1014.42 1014.45 1014.53 1014.60 1014.68 1014.95 1015.24 1015.52 1015.63 1015.57 1015.76 1015.68 1015.77 1015.81 1015.82 1016.09 1016.77 1017.46 1018.64 1019.55 1020.15 1020.52 1020.80 1020.99 1021.34 1021.75 1022.20 1022.28 1022.22 1022.18 1022.04 1021.83 1021.62 1021.29 1020.88 1020.36 1020.10
1006.16 1006.95 1007.74 1008.56 1009.37 1010.16 1010.97 1011.81 1012.76 1013.83 1014.20 1013.82 1013.60 1014.02 1014.16 1013.87 1013.92 1013.96 1014.06 1014.35 1014.52 1014.48 1014.73 1015.26 1015.37 1015.47 1015.54 1015.77 1015.89 1016.31 1016.55 1016.84 1017.23 1018.08 1019.09 1019.83 1020.53 1020.98 1021.22 1021.44 1021.68 1021.95 1022.33 1022.67 1023.01 1023.14 1023.14 1022.99 1022.77 1022.57 1022.30 1021.82 1021.37 1021.10
1005.70 1006.63 1007.15 1007.99 1008.92 1009.86 1010.78 1011.98 1012.79 1013.68 1014.15 1014.10 1014.11 1014.13 1013.89 1014.19 1014.53 1014.56 1014.67 1014.98 1014.96 1014.84 1014.92 1015.03 1015.51 1015.83 1015.87 1016.08 1016.67 1017.05 1017.70 1018.09 1019.08 1019.78 1020.43 1020.91 1021.34 1021.79 1022.04 1022.19 1022.35 1022.65 1022.95 1023.22 1023.36 1023.46 1023.47 1023.42 1023.36 1023.26 1023.05 1022.67 1022.34 1022.01
1005.03 1005.15 1005.95 1007.10 1008.37 1009.71 1010.90 1012.14 1013.10 1013.84 1014.12 1014.59 1015.01 1014.88 1014.78 1015.08 1015.37 1015.80 1015.82 1015.98 1015.77 1015.50 1015.16 1015.56 1016.11 1016.18 1016.74 1017.34 1018.24 1018.91 1019.42 1020.21 1020.59 1021.02 1021.39 1021.70 1021.96 1022.25 1022.41 1022.58 1022.76 1022.99 1023.21 1023.46 1023.61 1023.69 1023.73 1023.78 1023.67 1023.44 1023.34 1023.28 1022.97 1022.73
1003.72 1003.56 1004.27 1005.82 1008.02 1009.63 1011.09 1012.15 1013.04 1014.01 1014.96 1015.51 1015.64 1016.02 1016.45 1016.93 1017.02 1017.17 1017.17 1016.92 1016.58 1016.05 1015.91 1016.50 1016.66 1017.50 1018.60 1019.32 1020.09 1020.82 1021.17 1021.48 1021.76 1021.95 1022.13 1022.28 1022.43 1022.60 1022.71 1022.79 1022.93 1023.13 1023.34 1023.55 1023.71 1023.81 1023.84 1023.82 1023.74 1023.67 1023.66 1023.59 1023.43 1023.27
1002.01 1002.44 1003.70 1005.80 1007.17 1008.86 1010.64 1012.10 1012.53 1014.04 1015.31 1015.79 1016.35 1016.84 1017.48 1018.11 1018.59 1018.62 1018.20 1017.83 1017.61 1017.51 1017.56 1018.21 1018.90 1020.09 1021.04 1021.59 1021.83 1022.13 1022.25 1022.33 1022.43 1022.50 1022.62 1022.80 1022.92 1022.96 1022.97 1023.04 1023.14 1023.25 1023.40 1023.56 1023.71 1023.79 1023.88 1023.97 1024.00 1023.87 1023.78 1023.71 1023.61 1023.60
1003.46 1004.13 1004.96 1005.80 1006.33 1008.46 1010.94 1012.39 1012.67 1013.70 1015.22 1016.28 1016.88 1017.77 1018.50 1018.99 1019.35 1019.47 1019.21 1018.95 1018.89 1019.30 1020.11 1020.92 1021.77 1022.38 1022.59 1022.88 1023.00 1023.01 1023.05 1022.97 1022.89 1022.91 1023.08 1023.19 1023.21 1023.14 1023.23 1023.26 1023.31 1023.39 1023.51 1023.65 1023.74 1023.89 1023.94 1023.99 1024.06 1024.01 1023.99 1023.97 1023.91 1023.94
1004.77 1005.75 1006.01 1006.41 1007.91 1009.20 1011.25 1012.66 1013.70 1014.74 1015.75 1016.76 1017.75 1018.33 1019.28 1019.66 1020.05 1020.22 1020.40 1020.46 1020.69 1021.92 1022.62 1022.98 1023.16 1023.44 1023.69 1023.72 1023.67 1023.58 1023.53 1023.33 1023.47 1023.60 1023.74 1023.68 1023.71 1023.62 1023.59 1023.57 1023.53 1023.57 1023.70 1023.87 1023.97 1024.12 1024.16 1024.21 1024.28 1024.29 1024.32 1024.35 1024.35 1024.33
1005.87 1006.08 1006.87 1007.29 1008.87 1010.63 1012.32 1013.27 1013.97 1015.03 1016.17 1017.23 1018.00 1018.90 1019.95 1020.66 1021.06 1021.38 1021.49 1021.84 1023.09 1023.76 1023.81 1023.81 1023.92 1024.03 1024.19 1024.29 1024.37 1024.29 1024.17 1024.09 1024.08 1024.15 1024.20 1024.01 1024.04 1023.98 1023.97 1024.08 1023.87 1024.04 1024.17 1024.31 1024.39 1024.57 1024.61 1024.62 1024.59 1024.51 1024.59 1024.68 1024.78 1024.81
1005.98 1006.43 1007.84 1009.04 1010.72 1012.25 1014.02 1013.88 1014.53 1015.66 1016.73 1017.93 1018.59 1019.76 1020.87 1021.40 1021.75 1021.84 1022.93 1023.84 1024.37 1024.49 1024.34 1024.26 1024.38 1024.49 1024.67 1024.82 1024.83 1024.84 1024.75 1024.55 1024.60 1024.66 1024.67 1024.63 1024.60 1024.61 1024.53 1024.48 1024.45 1024.42 1024.48 1024.67 1024.78 1024.92 1024.97 1024.99 1024.99 1024.93 1024.93 1025.04 1025.14 1025.21
1007.58 1009.52 1011.00 1011.94 1012.75 1014.28 1014.41 1014.87 1015.38 1016.33 1017.37 1018.30 1019.38 1020.68 1021.33 1021.71 1022.12 1023.07 1024.24 1024.79 1025.02 1024.86 1024.73 1024.79 1024.84 1024.98 1025.15 1025.25 1025.34 1025.41 1025.30 1025.11 1025.13 1025.21 1025.25 1025.06 1025.00 1025.00 1024.95 1024.95 1024.88 1024.86 1024.87 1024.97 1025.12 1025.25 1025.29 1025.28 1025.29 1025.32 1025.42 1025.47 1025.59 1025.65
1010.17 1013.57 1013.69 1014.31 1014.63 1015.33 1016.09 1016.42 1016.97 1017.42 1018.62 1019.13 1020.08 1021.03 1021.50 1021.93 1023.09 1024.18 1024.88 1025.25 1025.35 1025.44 1025.39 1025.36 1025.36 1025.34 1025.48 1025.73 1025.92 1025.94 1025.87 1025.67 1025.65 1025.76 1025.91 1025.71 1025.46 1025.37 1025.33 1025.29 1025.29 1025.26 1025.32 1025.34 1025.46 1025.53 1025.62 1025.64 1025.67 1025.74 1025.80 1025.85 1025.92 1026.13
1013.42 1015.41 1015.59 1016.08 1016.39 1016.41 1017.20 1017.97 1018.07 1018.52 1018.98 1019.93 1020.78 1021.39 1021.91 1022.83 1023.92 1024.80 1025.11 1025.45 1025.66 1025.85 1026.01 1026.11 1026.16 1026.32 1026.50 1026.56 1026.54 1026.53 1026.48 1026.30 1026.23 1026.25 1026.50 1026.35 1026.19 1025.98 1025.92 1025.86 1025.75 1025.66 1025.57 1025.51 1025.58 1025.66 1025.76 1025.90 1025.97 1026.07 1026.14 1026.28 1026.43 1026.54
1015.33 1016.49 1016.85 1017.24 1017.27 1017.60 1018.55 1018.97 1019.22 1019.50 1020.19 1020.93 1021.59 1022.36 1023.12 1024.31 1025.24 1025.67 1025.80 1026.00 1026.25 1026.61 1026.78 1026.83 1026.80 1027.01 1027.29 1027.44 1027.43 1027.33 1027.09 1026.87 1026.82 1027.03 1027.18 1027.16 1027.09 1027.00 1026.87 1026.75 1026.59 1026.39 1025.98 1025.70 1025.63 1025.65 1025.75 1025.93 1026.12 1026.28 1026.44 1026.62 1026.75 1026.87
1016.84 1017.57 1018.22 1019.16 1019.27 1019.74 1020.38 1020.92 1021.26 1021.66 1021.89 1022.21 1022.73 1024.05 1024.88 1025.59 1026.41 1026.56 1026.65 1026.78 1027.00 1027.33 1027.65 1027.90 1028.00 1028.08 1028.21 1028.38 1028.36 1028.14 1028.00 1027.93 1027.69 1027.67 1027.66 1027.74 1027.84 1027.83 1027.70 1027.47 1027.18 1026.77 1026.40 1026.12 1025.91 1025.80 1025.84 1025.98 1026.24 1026.45 1026.62 1026.78 1027.03 1027.23
1018.58 1019.23 1019.61 1021.06 1021.42 1022.21 1023.06 1023.41 1023.51 1023.55 1023.67 1023.69 1024.46 1025.56 1026.38 1027.06 1027.64 1027.62 1027.63 1027.61 1027.73 1028.07 1028.59 1028.99 1029.34 1029.36 1029.31 1029.31 1029.35 1029.33 1029.24 1028.85 1028.58 1028.71 1028.68 1028.75 1028.77 1028.68 1028.63 1028.32 1027.91 1027.48 1027.06 1026.66 1026.37 1026.26 1026.27 1026.37 1026.54 1026.71 1026.93 1027.13 1027.43 1027.60
1020.41 1020.54 1021.50 1022.82 1023.82 1024.73 1025.11 1025.24 1025.21 1025.24 1025.00 1025.17 1025.48 1026.58 1027.44 1028.20 1028.49 1028.52 1028.49 1028.64 1028.84 1029.33 1029.81 1029.96 1029.99 1030.00 1030.22 1030.17 1030.40 1030.40 1030.41 1030.23 1029.86 1029.73 1029.73 1029.80 1029.90 1029.86 1029.58 1029.25 1028.83 1028.35 1027.85 1027.42 1027.17 1027.09 1027.02 1027.08 1027.20 1027.36 1027.56 1027.75 1027.91 1028.17
1021.24 1021.78 1023.11 1024.42 1025.55 1026.09 1026.20 1026.36 1026.02 1026.08 1026.58 1026.79 1027.24 1028.11 1028.97 1029.34 1029.26 1029.58 1029.79 1030.22 1030.25 1030.25 1030.34 1030.62 1030.71 1030.88 1030.89 1031.10 1031.13 1031.17 1031.19 1031.16 1031.00 1030.87 1030.74 1030.63 1030.51 1030.37 1030.18 1029.84 1029.61 1029.16 1028.38 1028.08 1027.88 1027.78 1027.79 1027.88 1027.98 1028.14 1028.32 1028.52 1028.74 1028.92
1022.68 1023.43 1024.14 1025.62 1026.45 1026.38 1026.60 1027.12 1027.38 1027.66 1028.36 1028.38 1029.28 1029.57 1030.06 1030.24 1030.32 1030.26 1030.51 1030.80 1030.99 1031.05 1031.24 1031.26 1031.26 1031.46 1031.67 1031.74 1031.75 1031.74 1031.68 1031.68 1031.60 1031.56 1031.37 1031.12 1030.87 1030.79 1030.61 1030.25 1029.95 1029.39 1028.90 1028.69 1028.58 1028.61 1028.70 1028.79 1028.97 1029.13 1029.32 1029.50 1029.66 1029.81
1023.81 1023.92 1024.34 1025.39 1026.28 1026.73 1026.98 1027.29 1028.19 1028.82 1029.05 1029.76 1030.00 1030.43 1030.77 1030.60 1030.68 1030.60 1030.80 1031.12 1031.17 1031.08 1031.19 1031.43 1031.52 1031.66 1031.88 1031.98 1031.97 1031.91 1032.20 1032.00 1032.21 1031.78 1031.35 1031.45 1031.55 1031.08 1030.68 1030.36 1030.02 1029.76 1029.54 1029.53 1029.51 1029.42 1029.47 1029.67 1029.89 1030.04 1030.17 1030.30 1030.44 1030.56
Wind_Speed
18 16 14 14 14 16 15 15 16 17 15 12 11 10 8 7 15 6 1 4 4 3 5 4 3 5 3 3 4 5 6 4 4 7 3 3 3 4 5 7 7 5 4 1 2 5 5 8 6 3 6 7 11 11
19 20 18 15 15 15 13 12 15 14 12 10 13 10 8 7 14 9 2 2 2 2 4 1 5 7 9 12 3 2 3 5 2 2 2 2 3 4 5 4 3 3 3 3 4 4 3 4 8 10 4 5 9 10
20 19 18 17 20 20 18 20 15 12 12 13 13 12 10 9 19 8 3 4 2 2 4 6 10 10 9 14 7 4 3 5 3 3 3 2 4 2 4 4 7 4 6 3 5 2 7 12 7 6 6 6 8 10
19 18 18 20 22 19 18 18 17 14 13 14 14 13 10 11 13 10 3 3 2 1 3 6 2 6 5 8 12 15 7 1 1 2 2 3 3 2 4 8 9 4 7 9 6 3 12 10 13 10 12 13 13 12
20 18 18 21 23 22 19 17 15 15 15 16 14 13 11 12 13 6 3 4 4 1 3 6 6 12 9 9 12 13 11 7 3 2 3 3 3 3 4 3 3 5 6 4 4 15 3 5 8 10 13 13 11 10
21 20 19 21 22 21 19 17 16 15 15 16 14 14 12 12 9 4 1 5 6 3 2 4 3 5 1 6 11 12 9 5 3 3 3 3 3 2 4 3 4 5 8 6 6 12 10 11 12 9 9 9 9 10
21 20 19 22 21 21 20 19 18 15 14 14 15 13 11 11 4 4 3 2 9 6 2 4 5 3 2 3 3 3 6 3 3 3 4 3 3 2 3 4 7 10 11 9 14 13 9 15 8 12 9 8 9 8
20 20 21 22 22 20 19 19 17 17 15 15 14 12 10 11 6 3 3 1 8 3 2 3 5 5 3 1 2 4 5 4 4 3 2 3 2 4 4 4 8 12 11 9 15 10 8 8 10 12 12 9 9 8
20 20 22 22 24 24 20 19 18 17 18 16 12 11 3 2 2 2 6 12 3 3 4 3 2 4 2 1 1 3 3 4 3 5 3 4 3 5 4 5 8 10 10 12 13 9 12 12 12 13 12 12 9 8
19 20 21 23 23 21 20 20 20 19 18 16 6 3 3 5 8 10 5 6 4 3 3 5 3 4 1 1 1 2 2 3 4 3 3 4 2 8 7 6 6 9 10 12 8 13 14 13 12 12 12 10 9 8
19 19 19 22 22 21 21 20 21 19 13 3 4 4 1 16 3 2 3 5 4 4 5 5 9 4 2 3 3 2 2 1 2 2 3 3 3 4 6 7 7 8 9 9 8 7 9 9 10 11 11 10 9 9
19 18 18 19 21 21 20 20 21 10 4 6 4 5 4 4 3 4 4 3 5 6 4 5 5 5 3 1 2 2 2 0 2 0 2 2 3 4 5 7 7 8 9 10 10 10 10 10 10 10 9 9 9 6
19 18 17 17 20 20 21 24 23 13 8 4 4 5 4 3 5 8 9 5 5 4 5 5 3 3 1 2 1 1 3 3 0 1 1 3 5 4 5 5 5 7 9 9 9 9 9 9 9 10 9 8 6 5
18 18 19 20 22 23 22 20 20 16 3 4 6 7 6 5 6 6 5 7 5 3 6 4 4 2 2 3 2 3 1 2 2 3 2 2 4 4 4 4 5 7 8 7 8 8 9 8 8 7 7 7 5 4
20 19 20 19 21 21 20 19 22 4 3 4 4 7 7 3 1 1 2 3 0 3 7 4 2 2 1 2 2 1 3 3 1 0 1 2 3 3 4 5 5 6 5 5 4 4 5 5 5 6 8 7 6 4
21 18 16 21 22 21 20 18 7 2 2 1 3 3 2 4 2 2 3 3 1 3 2 2 3 2 2 3 3 3 2 3 2 1 1 1 1 2 3 3 3 2 2 3 3 4 4 5 5 4 4 6 6 5
20 5 19 23 22 22 20 4 3 2 2 3 0 3 2 4 3 2 2 2 3 2 3 3 4 5 3 2 3 1 1 2 1 1 1 2 2 1 2 3 2 2 2 1 2 3 3 3 2 4 6 6 5 5
9 12 25 31 22 15 3 2 4 4 5 1 3 2 3 4 2 3 2 3 2 0 1 2 2 2 3 4 2 2 1 1 0 2 2 2 2 3 2 3 3 3 2 1 1 2 2 3 3 3 2 3 3 3
15 21 35 36 16 7 4 3 2 5 2 2 4 3 4 4 4 3 3 3 4 3 3 3 5 2 2 1 1 1 0 1 2 2 3 3 2 3 3 2 2 2 1 1 1 1 2 3 2 2 2 1 2 2
28 24 20 18 7 5 5 2 2 5 3 2 3 3 3 3 1 2 5 5 3 3 6 5 2 1 2 1 0 0 1 2 2 2 1 3 4 3 4 3 2 1 1 2 2 2 2 2 3 3 2 1 2 3
15 6 9 6 4 5 5 3 4 3 4 4 3 2 3 2 3 4 4 4 5 4 3 1 1 2 1 2 2 1 3 3 2 2 1 2 2 3 4 4 3 2 2 2 2 3 3 3 2 3 2 3 3 3
3 5 4 3 5 5 5 3 5 3 4 3 3 3 3 2 2 3 2 6 3 2 1 1 2 2 4 3 3 4 2 4 3 3 3 3 3 3 4 4 3 3 3 3 2 2 2 2 2 3 3 4 3 4
6 5 5 5 7 6 1 0 4 2 4 3 2 4 3 2 1 1 4 2 1 1 1 2 3 3 5 3 4 5 5 4 4 4 4 3 4 3 3 4 3 2 3 3 2 2 2 2 3 4 4 4 4 5
10 8 6 4 4 3 2 3 3 3 3 3 3 3 1 2 1 4 3 1 1 2 3 3 3 3 3 4 4 4 4 2 3 4 5 3 3 4 4 4 4 4 3 2 2 2 2 3 4 4 4 5 4 5
8 7 4 5 4 5 5 3 3 4 3 2 4 2 1 2 3 3 2 1 1 2 3 3 4 3 2 3 2 3 5 3 3 4 5 4 2 2 3 4 4 3 1 2 2 2 3 3 3 4 4 4 5 6
8 3 4 1 2 5 2 4 2 4 4 3 3 2 2 3 4 3 2 2 1 1 1 1 3 4 5 4 3 3 3 2 3 4 4 5 4 3 3 3 3 4 5 1 2 3 3 3 3 4 4 4 5 5
5 2 3 3 2 4 4 3 3 4 4 3 3 3 3 4 3 2 2 2 2 1 2 3 2 3 3 3 3 4 4 5 5 5 4 5 6 6 5 4 4 4 5 3 2 3 3 3 3 3 3 3 3 4
3 3 4 3 5 5 4 3 3 3 2 2 3 4 4 4 3 1 2 2 4 5 5 5 5 3 3 3 3 3 3 3 1 2 2 4 6 6 7 5 5 8 4 4 3 1 2 3 3 4 4 4 3 2
4 2 4 5 5 5 5 3 1 2 3 2 4 3 3 2 1 1 2 2 3 4 4 4 3 3 4 4 5 5 4 3 2 3 3 2 3 4 7 6 6 6 5 4 5 4 5 4 4 4 4 4 4 3
1 1 5 4 5 4 2 1 1 1 2 2 4 4 3 2 3 2 1 2 2 3 2 2 0 1 2 2 2 5 5 5 4 2 3 1 1 4 5 5 5 5 5 4 3 4 6 5 5 3 4 3 3 3
1 4 6 5 4 2 2 2 1 3 3 4 4 5 3 2 2 3 3 2 3 3 3 3 4 2 3 2 2 2 3 4 4 5 3 1 2 3 4 4 4 4 3 2 3 3 3 3 3 4 4 4 4 4
4 3 6 6 1 2 2 3 2 4 4 4 3 2 3 3 1 2 0 2 2 3 1 3 3 2 1 1 1 0 0 0 2 3 4 3 3 4 4 3 3 3 3 3 2 3 3 4 4 4 4 4 4 3
3 3 4 5 3 0 2 4 4 2 4 3 2 1 2 3 4 3 0 0 2 4 4 4 3 3 4 3 2 1 0 1 2 4 4 4 4 4 3 3 3 4 5 5 4 3 4 4 3 4 4 3 2 2
Wind_Direction
196 201 203 191 192 200 193 183 193 191 194 184 193 199 211 225 181 136 177 186 141 192 270 225 212 244 284 271 272 329 331 356 338 13 354 343 301 316 292 320 292 338 301 283 184 228 251 6 338 318 340 17 334 300
204 205 215 208 183 191 183 179 181 183 175 190 198 197 200 211 179 146 144 168 142 211 260 267 258 250 222 226 204 225 265 333 265 339 288 285 295 300 306 302 347 326 318 287 293 281 334 320 283 299 295 306 281 331
208 203 205 199 187 185 185 163 199 186 189 195 196 196 190 199 173 147 121 140 142 253 268 249 245 255 224 228 206 233 226 217 234 230 315 313 280 268 299 298 312 287 291 267 293 236 306 309 305 318 324 287 12 30
219 210 204 193 186 190 193 180 189 186 192 197 199 193 186 185 180 155 145 156 135 77 273 272 295 263 226 185 189 208 234 7 351 338 326 274 267 208 284 295 289 272 293 314 267 322 321 33 7 36 49 56 53 47
216 207 195 186 185 197 194 186 175 187 190 200 193 191 194 191 189 153 165 174 209 181 279 289 283 266 243 191 196 198 211 220 243 263 233 248 251 266 245 263 270 350 345 352 323 337 322 5 2 11 50 47 42 44
214 205 199 189 186 187 185 179 182 190 195 188 197 186 185 186 144 94 254 217 209 180 269 289 283 277 280 189 187 179 191 180 191 202 230 243 256 260 265 281 77 20 9 56 332 324 20 25 40 25 45 37 39 41
207 197 192 188 182 186 186 183 176 181 189 181 174 177 188 196 127 163 191 141 180 145 245 297 285 282 290 132 132 152 177 186 184 217 228 232 228 215 263 258 359 8 356 25 9 2 4 24 360 6 36 37 37 38
200 194 187 182 183 188 190 190 179 185 182 178 180 173 198 194 147 234 249 135 157 121 222 264 273 313 190 208 180 173 154 189 202 229 219 206 196 209 249 40 16 4 348 10 4 22 11 10 15 24 26 19 18 20
198 188 182 177 179 189 196 181 166 188 165 167 167 178 122 132 165 213 202 151 198 211 191 212 248 268 341 355 69 209 168 201 175 211 210 188 198 224 48 28 21 10 5 339 345 15 15 23 13 10 17 15 13 9
195 188 186 184 183 185 183 170 168 190 169 171 139 151 186 196 179 144 137 173 184 216 216 223 182 248 237 344 246 261 200 229 189 208 164 218 102 82 60 57 35 9 4 4 358 6 2 7 6 360 8 9 4 4
179 177 179 181 179 179 177 170 180 176 155 137 183 180 197 150 113 164 197 186 171 225 212 225 199 209 228 198 234 216 281 262 232 159 256 185 140 80 41 42 28 20 13 14 13 10 360 356 356 351 358 4 6 12
173 173 176 176 175 172 172 167 170 161 141 182 162 130 134 150 154 174 196 166 212 226 189 200 208 195 242 188 213 196 259 338 256 350 249 200 91 58 35 29 23 22 16 14 17 10 7 6 4 352 357 357 1 7
181 180 178 173 160 158 174 181 176 153 132 196 191 157 185 161 172 191 181 198 205 207 186 175 170 172 196 183 209 227 234 236 359 232 279 63 92 48 28 17 30 32 27 22 20 17 12 10 15 8 356 355 353 20
187 187 181 176 172 178 179 181 177 152 171 208 178 145 202 194 219 187 182 170 206 156 147 149 124 186 179 168 196 217 232 253 245 231 149 97 71 27 22 24 26 24 34 33 24 19 18 10 8 9 360 349 360 22
190 190 190 187 182 182 185 182 172 163 156 246 169 197 197 193 177 211 115 104 86 129 138 127 112 188 143 148 197 129 189 242 262 125 106 84 50 25 26 17 20 20 14 25 15 16 10 5 13 9 2 1 15 29
197 199 201 193 191 189 182 166 156 85 138 281 13 124 133 127 120 89 85 104 25 137 129 78 130 151 201 167 172 202 210 231 122 98 71 14 47 21 353 359 347 348 349 351 1 357 356 8 4 11 11 22 16 30
191 198 182 189 177 167 163 99 115 120 78 54 37 15 35 53 78 77 38 35 344 199 184 135 141 194 116 139 177 11 170 110 90 70 358 328 328 327 321 321 314 293 286 314 341 355 354 345 6 30 35 19 28 41
215 212 204 176 164 115 67 99 117 142 129 56 112 44 66 25 63 58 15 351 306 4 119 127 129 137 172 185 201 155 96 335 340 349 342 328 332 333 310 308 333 323 306 260 276 339 18 29 34 35 18 14 41 53
121 116 128 139 134 112 104 98 85 105 106 118 107 76 76 91 51 21 9 11 59 39 71 39 74 93 134 123 124 122 47 19 347 328 323 328 314 319 341 339 347 6 338 303 319 35 46 22 13 347 347 352 58 60
118 111 95 76 81 90 92 67 78 79 89 96 71 63 77 63 59 15 27 23 40 50 49 47 73 142 128 141 142 354 308 297 285 343 358 16 4 7 18 351 5 53 78 85 72 56 34 24 23 13 20 51 93 85
86 67 60 67 61 71 90 95 61 85 102 76 132 72 71 45 41 28 29 0 58 41 75 61 82 94 105 55 30 7 36 43 47 30 357 313 7 23 30 30 31 28 25 28 23 24 30 29 27 48 61 75 96 106
79 73 93 45 81 68 75 16 108 124 76 110 81 71 60 54 35 24 5 44 58 26 31 56 110 108 92 57 32 28 30 76 68 67 39 35 26 17 21 8 30 47 47 35 35 41 35 36 72 87 88 87 89 99
48 44 45 44 67 56 63 101 81 72 95 118 89 71 40 63 72 62 68 57 66 332 321 66 85 85 98 75 72 49 30 63 65 53 50 56 56 44 45 37 35 67 68 54 60 78 78 78 83 88 94 97 103 101
33 49 42 64 74 124 93 57 81 90 89 77 84 92 87 141 93 58 76 43 316 342 46 63 120 106 96 68 54 36 18 44 77 59 26 36 60 52 49 51 49 47 51 81 85 93 91 87 94 97 100 103 98 99
71 12 24 25 360 76 69 40 36 70 98 127 101 127 164 102 78 72 118 128 53 53 48 60 63 50 90 96 62 43 21 33 70 72 25 17 28 58 56 54 48 40 65 91 92 97 93 95 101 110 116 118 118 114
76 325 76 151 341 94 152 99 121 143 115 83 80 86 67 85 83 92 93 136 113 67 57 83 99 89 66 46 61 32 2 359 80 79 37 26 29 40 46 43 26 26 8 100 139 135 126 126 122 123 120 121 122 126
91 32 50 26 10 84 70 49 48 80 84 107 124 97 88 84 107 104 106 50 102 70 60 52 81 100 109 90 58 35 34 49 72 82 74 56 47 38 36 27 15 344 343 347 204 176 164 155 147 144 129 118 129 145
88 43 95 6 63 28 91 61 54 71 87 69 79 66 110 145 136 68 64 63 101 93 79 60 48 58 80 67 34 16 25 358 69 92 92 73 53 37 16 11 6 6 3 22 32 67 142 152 152 147 140 130 123 129
60 25 83 51 55 50 39 54 88 51 10 79 106 119 117 66 359 350 27 65 95 96 88 87 51 47 66 65 49 38 24 11 115 83 76 35 359 7 356 355 2 8 5 12 39 81 92 106 121 122 118 112 104 104
44 55 91 68 62 38 320 325 7 320 7 70 106 105 76 48 14 357 64 81 105 110 105 96 44 156 118 94 78 47 34 27 31 93 129 99 339 323 334 344 347 348 349 11 41 47 59 68 87 84 95 98 101 107
39 80 78 66 81 330 238 308 296 101 44 50 34 82 96 94 42 35 62 74 110 110 105 78 64 40 98 91 106 104 64 27 28 38 34 21 340 337 334 330 331 326 340 30 48 65 83 77 81 95 98 101 99 108
39 89 123 106 171 264 51 54 70 73 353 53 21 54 36 59 77 287 208 118 87 99 115 129 112 94 146 111 112 76 171 19 8 8 6 2 351 342 332 334 342 5 30 41 57 75 77 87 77 73 87 91 87 91
74 68 62 99 76 107 268 88 31 68 34 53 3 146 179 154 175 230 284 220 186 162 162 179 161 139 149 142 115 68 321 350 333 357 27 23 3 0 3 14 25 42 56 60 56 67 77 91 80 81 83 94 104 109